sat.trackr.live / text

‹ back to catalog

STARLINK-31447

NORAD 59302 · 2024-056G

PAYLOAD ACTIVE UNKNOWN

§ Identity

Operator
Country
US
Launch date
2024-03-24
Launch site
AFETR
Launch vehicle
Mass (kg)
RCS (m²)

Purposes: comms

External: N2YO · Heavens-Above · Gunter

§ Orbital elements

Epoch: 2026-09-18T21:40:10.803648Z

Period
94.27 min
Inclination
43.0001°
Eccentricity
0.0001063
Mean motion
15.27571266 rev/d
Perigee alt
482.3 km
Apogee alt
483.8 km
Semi-major
6,861.2 km
B*
1.6258e-5
RAAN
219.5546°
Arg perigee
276.3669°
Mean anomaly
83.7061°
Rev number
14,070

§ Raw data

STARLINK-314471 59302U 24056G   26261.90290282  .00000185  00000+0  16258-4 0  99942 59302  43.0001 219.5546 0001063 276.3669  83.7061 15.27571266140709

JSON: /api/v1/satellites/59302 · /tle

For live sub-satellite position, see the globe view (requires WebGL).

§ Visibility from observer

Set your observer location to see the next 7 days of passes ≥ 10°. The values pass through the URL so the page stays shareable.

No JS? Fill the form by hand. The geolocation button needs JavaScript.